Location: Newark
(58.8333°N, 23.5833°E)
Time: 09:25:29
(UTC+00:00)

Vanguard 3 - Visible Passes

Search period start: 13 November 2019 00:00
Search period end: 23 November 2019 00:00
Orbit: 508 x 3263 km, 33.3° (Epoch: 12 November)

Date Brightness Start Highest point End Pass type
(mag) Time Alt. Az. Time Alt. Az. Time Alt. Az.
13 Nov 10.5 15:40:37 10° SW 15:50:58 21° S 15:58:44 10° SE visible
13 Nov 10.4 17:55:42 10° SW 18:01:42 14° SSW 18:06:31 10° S visible
14 Nov 10.4 16:38:30 10° SW 16:48:01 20° SSW 16:55:10 10° SSE visible
15 Nov 10.6 15:22:08 10° SW 15:33:52 23° S 15:42:41 10° SE visible
15 Nov 10.5 17:37:34 10° WSW 17:44:44 16° SSW 17:50:26 10° S visible
16 Nov 10.6 16:20:15 10° WSW 16:30:56 21° SSW 16:39:00 10° SSE visible
17 Nov 10.7 15:03:48 10° SW 15:16:38 24° S 15:26:26 10° SE visible
17 Nov 10.7 17:19:30 10° WSW 17:27:38 16° SSW 17:34:07 10° S visible
18 Nov 10.7 16:02:04 10° WSW 16:13:42 22° SSW 16:22:38 10° SSE visible
18 Nov 10.9 18:23:25 10° SW 18:23:54 10° SW 18:24:22 10° SW visible
19 Nov 10.9 14:45:35 10° SW 14:59:17 26° S 15:10:00 10° SE visible
19 Nov 10.9 17:01:30 10° WSW 17:10:24 17° SSW 17:17:35 10° S visible
20 Nov 10.9 15:44:00 10° WSW 15:56:22 23° SSW 16:06:05 10° SSE visible
20 Nov 11.1 18:05:20 10° SW 18:06:38 10° SW 18:07:53 10° SW visible
21 Nov 11.0 14:27:32 10° WSW 14:41:48 27° S 14:53:23 10° SE visible
21 Nov 11.0 16:43:37 10° WSW 16:53:03 17° SW 17:00:49 10° S visible
22 Nov 11.1 15:26:03 10° WSW 15:38:54 23° SSW 15:49:19 10° SSE visible
22 Nov 11.3 17:48:42 10° SW 17:49:15 10° SW 17:49:48 10° SW visible
